Regional Weather Roundup
Issued by NWS Raleigh/Durham, NC

Home | Current Version | Previous Version | Text Only | Print | Product List | Glossary On
Versions: 1 2 3 4 5 6 7 8 9 10 11 12 13 14 15 16 17 18 19 20 21 22 23 24 25 26 27 28 29 30 31 32 33 34 35 36 37 38 39 40 41 42 43 44 45 46 47 48 49 50
000
ASUS42 KRAH 310910
RWRRAH
NORTH CAROLINA WEATHER ROUNDUP
NATIONAL WEATHER SERVICE RALEIGH NC
500 AM EDT THU JUL 31 2014

NOTE: "FAIR" INDICATES FEW OR NO CLOUDS BELOW 12,000 FEET WITH NO
SIGNIFICANT WEATHER AND/OR OBSTRUCTIONS TO VISIBILITY.

NCZ001-053-055-056-065-067-311000-
WESTERN NORTH CAROLINA

CITY           SKY/WX    TMP DP  RH WIND       PRES   REMARKS
ASHEVILLE      MOCLDY    60  56  86 N5        30.15S
JEFFERSON      MOCLDY    56  49  77 CALM      30.19S
MORGANTON      MOCLDY    59  59  99 N3        30.16S
HICKORY        MOCLDY    63  60  90 NW3       30.10S
RUTHERFORDTON  MOCLDY    65  57  74 N5        30.10S
MOUNT AIRY     MOCLDY    61  57  88 CALM      30.11S
BOONE          MOCLDY    51  51  99 CALM      30.20S
$$

NCZ021-022-025-041-071-084-088-311000-
CENTRAL NORTH CAROLINA

CITY           SKY/WX    TMP DP  RH WIND       PRES   REMARKS
CHARLOTTE      CLOUDY    69  63  81 E3        30.09R
GREENSBORO     MOCLDY    66  62  87 N5        30.10R
WINSTON-SALEM  MOCLDY    65  61  87 CALM      30.12R
RALEIGH-DURHAM MOCLDY    67  63  87 CALM      30.09S
FORT BRAGG     PTCLDY    70  68  93 CALM      30.07S
FAYETTEVILLE   CLOUDY    71  66  84 NE5       30.07S
BURLINGTON     MOCLDY    63  60  90 CALM      30.09S FOG
LAURINBURG     CLOUDY    70  67  90 CALM      30.07S
$$

NCZ011-015-027-028-043-044-047-080-103-311000-
NORTHEASTERN NORTH CAROLINA

CITY           SKY/WX    TMP DP  RH WIND       PRES   REMARKS
ROCKY MT-WILSO MOCLDY    65  64  97 CALM      30.09S
GREENVILLE     MOCLDY    64  64 100 CALM      30.10S
WASHINGTON     PTCLDY    66  63  91 CALM      30.09R
ELIZABETH CITY MOCLDY    66  62  87 CALM      30.10R
MANTEO         NOT AVBL
CAPE HATTERAS  PTCLDY    73  65  75 NE6       30.08R
$$

NCZ078-087-090-091-093-098-101-311000-
SOUTHEASTERN NORTH CAROLINA

CITY           SKY/WX    TMP DP  RH WIND       PRES   REMARKS
LUMBERTON      MOCLDY    71  67  87 CALM      30.06S
GOLDSBORO      CLOUDY    69  68  98 E2        30.07R
KINSTON        PTCLDY    67  66  96 CALM      30.09S
KENANSVILLE    CLOUDY    67  65  94 CALM      30.08S
NEW BERN       PTCLDY    69  65  86 CALM      30.09R
CHERRY POINT   PTCLDY    70  67  90 CALM      30.08S
BEAUFORT       PTCLDY    71  68  90 CALM      30.07S
JACKSONVILLE   PTCLDY    73  68  84 E6        30.06S
WILMINGTON     PTCLDY    70  67  90 CALM      30.05F
$$




USA.gov is the U.S. government's official web portal to all federal, state and local government web resources and services.